Leadville, CO

7:47 PM MDT on March 29, 2017 (GMT -0600)
Lake County

Weather History for KLXV - September, 2011

Change the Weather History Date:

Saturday, September 10, 2011

  Actual Average Record
Temperature  
Mean Temperature 44 °F -  
Max Temperature 57 °F 63 °F 73 °F (1984)
Min Temperature 30 °F 32 °F 26 °F (1992)
Degree Days  
Heating Degree Days 21 18  
Month to date heating degree days 159 163  
Since 1 July heating degree days 676 885  
Cooling Degree Days 0 0  
Month to date cooling degree days 0 0  
Year to date cooling degree days 0 0  
Moisture  
Dew Point 32 °F    
Average Humidity 61    
Maximum Humidity 92    
Minimum Humidity 30    
Precipitation  
Precipitation T in 0.03 in 0.26 in (2002)
Month to date precipitation 1.01 0.43  
Year to date precipitation 11.78 9.38  
Snow  
Snow 0.00 in - - ()
Month to date snowfall 0.0  
Snow Depth 0.00 in    
Sea Level Pressure  
Sea Level Pressure 30.11 in    
Wind  
Wind Speed 5 mph (South)    
Max Wind Speed 25 mph    
Max Gust Speed 35 mph    
Visibility 10 miles    
Events      
T = Trace of Precipitation, MM = Missing Value Source: NWS Daily Summary

Daily Weather History Graph

Daily Weather History Graph

Search for Another Location

Airport or City:

Trip Planner

Search our weather history database for the weather conditions in past years. The results will help you decide how hot, cold, wet, or windy it might be!

Date:

Astronomy

Sep. 10, 2011 Rise Set
Actual Time 6:41 AM MDT 7:22 PM MDT
Civil Twilight 6:14 AM MDT 7:49 PM MDT
Nautical Twilight 5:42 AM MDT 8:20 PM MDT
Astronomical Twilight 5:09 AM MDT 8:53 PM MDT
Moon 6:17 PM MDT (9/10) 5:05 AM MDT (9/10)
Length of Visible Light 13h 34m
Length of Day
12h 40m
Waxing Gibbous, 97% of the Moon is Illuminated
Sep 10
Waxing Gibbous
Sep 12
Full
Sep 20
Last Quarter
Sep 27
New
Oct 3
First Quarter

Hourly Weather History & Observations

Time (MDT) Temp. Windchill Dew Point Humidity Pressure Visibility Wind Dir Wind Speed Gust Speed Precip Events Conditions
12:53 AM 41.0 °F 39.0 °F 33.1 °F 73% 30.08 in 10.0 mi South 3.5 mph - N/A   Partly Cloudy
1:53 AM 39.9 °F 37.8 °F 32.0 °F 73% 30.08 in 10.0 mi SE 3.5 mph - N/A   Clear
2:53 AM 35.1 °F - 32.0 °F 89% 30.09 in 10.0 mi Calm Calm - N/A   Clear
3:53 AM 33.1 °F 30.0 °F 30.0 °F 89% 30.09 in 10.0 mi ENE 3.5 mph - N/A   Clear
4:53 AM 35.1 °F - 30.0 °F 82% 30.08 in 10.0 mi Calm Calm - N/A   Clear
5:53 AM 35.1 °F - 30.9 °F 85% 30.08 in 10.0 mi Calm Calm - N/A   Clear
6:53 AM 32.0 °F - 30.0 °F 92% 30.17 in 10.0 mi Calm Calm - N/A   Clear
7:53 AM 37.0 °F - 33.1 °F 86% 30.17 in 10.0 mi Calm Calm - N/A   Clear
8:53 AM 43.0 °F - 34.0 °F 71% 30.11 in 10.0 mi Calm Calm - N/A   Clear
9:53 AM 46.0 °F 43.9 °F 34.0 °F 63% 30.12 in 10.0 mi SW 4.6 mph - N/A   Clear
10:53 AM 48.0 °F - 34.0 °F 58% 30.12 in 10.0 mi Variable 5.8 mph - N/A   Clear
11:53 AM 52.0 °F - 32.0 °F 47% 30.10 in 10.0 mi SW 11.5 mph 17.3 mph N/A   Clear
12:53 PM 55.0 °F - 30.9 °F 40% 30.06 in 10.0 mi SW 13.8 mph 19.6 mph N/A   Clear
1:53 PM 55.9 °F - 25.0 °F 30% 30.05 in 10.0 mi SSW 12.7 mph 23.0 mph N/A   Scattered Clouds
2:53 PM 55.9 °F - 28.9 °F 36% 30.06 in 10.0 mi SSW 11.5 mph 17.3 mph N/A   Partly Cloudy
3:53 PM 55.9 °F - 30.9 °F 39% 30.07 in 10.0 mi SW 13.8 mph 21.9 mph N/A   Mostly Cloudy
4:53 PM 51.1 °F - 37.0 °F 59% 30.11 in 10.0 mi SSW 12.7 mph - 0.00 in   Overcast
5:53 PM 52.0 °F - 34.0 °F 50% 30.10 in 10.0 mi ENE 5.8 mph - 0.00 in   Overcast
6:53 PM 48.9 °F - 35.1 °F 59% 30.14 in 10.0 mi ESE 3.5 mph - N/A   Partly Cloudy
7:53 PM 46.9 °F - 32.0 °F 56% 30.14 in 10.0 mi South 5.8 mph - N/A   Clear
8:53 PM 44.1 °F - 33.1 °F 65% 30.14 in 10.0 mi Calm Calm - N/A   Partly Cloudy
9:53 PM 42.1 °F - 32.0 °F 67% 30.15 in 10.0 mi Calm Calm - N/A   Clear
10:53 PM 37.0 °F 34.5 °F 30.9 °F 79% 30.17 in 10.0 mi NE 3.5 mph - N/A   Clear
11:53 PM 39.0 °F 35.7 °F 32.0 °F 76% 30.14 in 10.0 mi East 4.6 mph - N/A   Clear